Home > Weather > Baghlan > Past weeks

Flag for Afghanistan Past Weather in Baghlan, Afghanistan — Yesterday and Last 2 Weeks

Now
86 °F

Partly sunny.


Feels Like: 83 °F
Forecast: 74 / 94 °F
Wind: 13 mph from Southwest

Location: Termez Airport

Current Time: Jul 30, 2016 at 7:28:48 PM

Latest Report: Jul 30, 2016 at 6:00 PM


Visibility: N/A

Pressure: 29.74 "Hg (28.00 "Hg at 536m altitude)

Humidity: 22%

Dew Point: 43 °F

Location of BaghlanLocation

Past Weather in Baghlan — Graph

°F

Baghlan Temperature Yesterday

Maximum temperature yesterday: 99 °F (at 2:30 PM)
Minimum temperature yesterday: 73 °F (at 11:30 PM)
Average temperature yesterday: 86 °F

High & Low Weather Summary for the Past Weeks

 TemperatureHumidityPressure
High113 °F (Jul 26, 2:00 PM)69% (Jul 24, 4:30 AM)29.74 "Hg (Jul 24, 4:30 AM)
Low68 °F (Jul 20, 5:00 AM)7% (Jul 20, 1:30 PM)29.47 "Hg (Jul 26, 5:00 PM)
Average90 °F27%29.62 "Hg
* Reported Jul 15 5:30 PM — Jul 30 6:00 PM, Baghlan, Weather by CustomWeather, © 2016

Note: Actual official high and low records may vary slightly from our data, if they occured in-between our weather recording intervals... More about our weather records

Advertising

Baghlan Weather History for the Previous 24 Hours

Scroll right to see more
 ConditionsComfort  
Time TempWeatherWind HumidityBarometerVisibility
6:00 PM
Sat, Jul 30
86 °FPartly sunny.13 mph22%29.74 "HgN/A
5:30 PM88 °FSprinkles. Partly sunny.17 mph21%29.74 "HgN/A
5:00 PM88 °FPartly sunny.13 mph19%29.74 "HgN/A
4:30 PM88 °FSprinkles. Partly sunny.12 mph22%29.74 "HgN/A
4:00 PM90 °FPassing clouds.15 mph20%29.71 "HgN/A
3:30 PM91 °FSunny.14 mph18%29.71 "Hg10 mi
3:00 PM93 °FSunny.14 mph17%29.71 "Hg10 mi
2:30 PM93 °FSunny.16 mph15%29.71 "Hg10 mi
2:00 PM95 °FSunny.17 mph16%29.71 "Hg10 mi
1:30 PM97 °FSunny.17 mph13%29.71 "Hg10 mi
1:00 PM95 °FSunny.15 mph18%29.71 "Hg10 mi
12:30 PM95 °FSunny.15 mph16%29.71 "Hg10 mi
12:00 PM97 °FSunny.16 mph13%29.74 "Hg10 mi
11:30 AM95 °FSunny.16 mph14%29.74 "Hg10 mi
11:00 AM93 °FSunny.15 mph14%29.74 "Hg10 mi
10:30 AM91 °FSunny.15 mph17%29.74 "Hg10 mi
10:00 AM90 °FSunny.13 mph22%29.74 "Hg10 mi
9:30 AM88 °FSunny.10 mph24%29.74 "Hg10 mi
9:00 AM84 °FSunny.9 mph27%29.74 "Hg10 mi
8:30 AM82 °FSunny.9 mph30%29.74 "Hg10 mi
8:00 AM81 °FSunny.8 mph32%29.74 "Hg10 mi
7:30 AM75 °FSunny.7 mph41%29.74 "Hg10 mi
7:00 AM75 °FSunny.6 mph39%29.74 "Hg10 mi
6:30 AM73 °FSunny.5 mph44%29.74 "Hg10 mi
6:00 AM72 °FSunny.3 mph44%29.71 "Hg10 mi
5:30 AM68 °FSunny.No wind60%29.71 "Hg10 mi
5:00 AM70 °FClear.No wind53%29.71 "Hg10 mi
4:30 AM70 °FClear.2 mph53%29.68 "Hg10 mi
3:30 AM70 °FClear.No wind57%29.68 "Hg10 mi
3:00 AM70 °FClear.2 mph57%29.68 "Hg10 mi
2:00 AM73 °FThunderstorms. Passing clouds.No wind50%29.68 "HgN/A
1:30 AM75 °FClear.3 mph41%29.68 "Hg10 mi
1:00 AM73 °FThunderstorms. Passing clouds.2 mph41%29.68 "HgN/A
12:30 AM73 °FClear.5 mph44%29.68 "Hg10 mi
12:00 AM75 °FPassing clouds.3 mph44%29.68 "HgN/A
11:30 PM
Fri, Jul 29
73 °FClear.6 mph41%29.68 "Hg10 mi
11:00 PM75 °FClear.8 mph39%29.68 "Hg10 mi
10:30 PM77 °FClear.6 mph42%29.68 "Hg10 mi
10:00 PM77 °FClear.7 mph39%29.68 "Hg10 mi
9:30 PM81 °FClear.2 mph30%29.68 "Hg10 mi
9:00 PM81 °FPassing clouds.6 mph32%29.68 "HgN/A
8:30 PM82 °FClear.7 mph28%29.68 "Hg10 mi
8:00 PM82 °FClear.8 mph28%29.68 "Hg10 mi
7:30 PM84 °FClear.8 mph29%29.68 "Hg10 mi
7:00 PM84 °FSunny.8 mph29%29.68 "Hg10 mi
Weather by CustomWeather, © 2016

See weather overviewHow to use our weather pages